Astrocast 0.1
1 43798U 18099AS 21112.44227606 .00000168 00000-0 20047-4 0 9998
2 43798 97.6697 185.0612 0011482 216.0441 144.0008 14.96111000130143
JO-97
1 43803U 18099AX 21112.67749501 .00001096 00000-0 10316-3 0 9991
2 43803 97.6663 184.4859 0013835 232.9876 127.0079 14.95806410130157
Suomi 100
1 43804U 18099AY 21112.74884738 .00001021 00000-0 96553-4 0 9998
2 43804 97.6662 184.5269 0013857 233.0067 126.9886 14.95781314130172
Al Farabi 2
1 43805U 18099AZ 21112.35649447 .00001744 00000-0 16043-3 0 9999
2 43805 97.6663 184.3363 0013847 233.0369 126.9587 14.95989552130128
CHOMPTT
1 43855U 18104G 21112.37586422 .00001548 00000-0 62346-4 0 9996
2 43855 85.0365 330.6857 0017070 1.5872 358.5422 15.23820706130551
ISAT
1 43879U 18111D 21112.83536286 .00001525 00000-0 13895-3 0 9993
2 43879 97.6877 21.0667 0011347 293.7863 66.2173 14.96579543124738
UWE-4
1 43880U 18111E 21112.49800495 .00001143 00000-0 10478-3 0 9993
2 43880 97.6906 21.1777 0010571 295.8967 64.1164 14.96813862126714
Sparrow
1 43881U 18111F 21112.73816363 .00000607 00000-0 57935-4 0 9996
2 43881 97.6903 21.5350 0011168 290.8952 69.1074 14.96861769124751
Lume 1
1 43908U 18111AJ 21112.46622579 .00002053 00000-0 81971-4 0 9994
2 43908 97.2392 8.9568 0022025 126.7922 233.5342 15.26037839129136
FO-98
1 43933U 19003B 21112.37496507 .00011479 00000-0 45254-3 0 9998
2 43933 97.1893 155.9095 0015456 225.6684 134.3289 15.25618588125556
FO-99
1 43937U 19003F 21112.76844751 .00002286 00000-0 92366-4 0 9996
2 43937 97.1830 158.1712 0022574 205.9450 154.0659 15.25509645125770
MYSat 1
1 44045U 18092F 21112.32780727 .00005011 00000-0 13592-3 0 9990
2 44045 51.6388 339.9628 0010301 6.5127 353.5990 15.39402353122819
AstroCast 0.2
1 44083U 19018F 21112.70614893 .00003129 00000-0 13827-3 0 9992
2 44083 97.3779 174.8224 0013554 161.1289 199.0452 15.22378783114414
AISTechSat 3
1 44103U 19018AB 21112.79346495 .00002235 00000-0 95243-4 0 9994
2 44103 97.3643 175.2706 0013211 172.4854 282.0688 15.23922003114538
AISat 1
1 44104U 19018AC 21112.30068947 .00001977 00000-0 63738-4 0 9991
2 44104 97.4277 189.4146 0056570 193.5640 166.4085 15.31894967115072
Raavana-1
1 44329U 98067QE 21112.76641987 .00045527 00000-0 33914-3 0 9993
2 44329 51.6346 211.4326 0004172 46.3133 313.8211 15.72297118105381
Uguisu
1 44330U 98067QF 21112.68445629 .00045991 00000-0 34804-3 0 9995
2 44330 51.6317 212.3061 0004083 45.5931 314.5401 15.71919517105343
NepaliSat-1
1 44331U 98067QG 21112.63254715 .00046708 00000-0 34879-3 0 9994
2 44331 51.6320 211.9583 0003994 47.7621 312.3715 15.72228446105352
Prox-1
1 44339U 19036A 21112.27753416 .00001294 00000-0 25454-3 0 9993
2 44339 24.0013 327.9919 0011219 285.2115 74.7136 14.53502682 97014
Oculus-ASR
1 44348U 19036K 21112.54564208 .00015594 00000-0 21305-3 0 9991
2 44348 28.5115 145.4687 0335441 22.5757 338.9224 15.10758128100448
Armadillo
1 44352U 19036P 21112.38935162 .00023721 00000-0 30575-3 0 9999
2 44352 28.5267 129.1780 0307960 47.4796 315.1384 15.17547902100546
NO-104
1 44354U 19036R 21112.43117667 .00017110 00000-0 22877-3 0 9990
2 44354 28.5269 140.1771 0330708 29.2922 332.5788 15.12196934100482
NO-103
1 44355U 19036S 21112.30432570 .00035377 00000-0 40119-3 0 9994
2 44355 28.5230 104.5654 0275584 87.3155 275.8950 15.26580597100834
CP9
1 44360U 19036X 21112.15170544 .00073891 -50377-5 55791-3 0 9996
2 44360 28.5059 53.0766 0211191 172.9044 187.4616 15.46686464101204
Move-IIb
1 44398U 19038N 21112.57855457 .00002750 00000-0 15648-3 0 9993
2 44398 97.5762 76.8583 0025045 138.3791 221.9347 15.13447356 99310
SONATE
1 44400U 19038Q 21112.61041373 .00001495 00000-0 89145-4 0 9995
2 44400 97.5831 76.8076 0025752 138.4605 221.8591 15.12455636 99294
BeeSat 9
1 44412U 19038AC 21112.39487651 .00001649 00000-0 96282-4 0 9997
2 44412 97.5825 76.8256 0023195 143.6106 216.6707 15.13120658 98972
JAISAT-1
1 44419U 19038F 21112.71311242 .00001907 00000-0 10936-3 0 9990
2 44419 97.5829 77.6452 0022155 140.8033 219.4808 15.13606711 99369
LightSail-2
1 44420U 19036AC 21112.53479587 .00006327 00000-0 12507-2 0 9993
2 44420 24.0080 309.3251 0021508 288.0692 71.7458 14.59730157 95372
Taurus 1
1 44530U 19059C 21112.74799666 .00000740 00000-0 22023-3 0 9994
2 44530 98.5498 202.6254 0012074 313.7845 46.2346 14.46000498 85034
Duchifat 3
1 44854U 19089C 21112.92420596 .00001103 00000-0 94691-4 0 9994
2 44854 36.9652 69.0057 0007490 41.5923 318.5391 14.99435951 74763
OPS-SAT
1 44878U 19092F 21112.49888992 .00001652 00000-0 88385-4 0 9996
2 44878 97.4748 296.8151 0013973 11.2814 348.8730 15.16383227 74354
TO-108
1 44881U 19093C 21112.74465775 .00000156 00000-0 26702-4 0 9992
2 44881 97.9256 192.1731 0016410 111.4973 248.7990 14.81441098 72487
FloripaSat 1
1 44885U 19093G 21112.72942736 .00000581 00000-0 79268-4 0 9998
2 44885 97.9266 192.6598 0016057 120.1108 240.1711 14.82258816 72518
RS-44
1 44909U 19096E 21112.49183021 .00000024 00000-0 53845-4 0 9991
2 44909 82.5197 149.9994 0216615 223.7157 134.6614 12.79709627 61667
SwampSat-2
1 45115U 19071E 21112.49034984 .00045545 00000-0 82407-3 0 9999
2 45115 51.6367 293.8315 0006702 107.8393 252.3327 15.49187324 68757
HO-107
1 45119U 19071J 21112.25507406 .00003269 00000-0 10439-3 0 9994
2 45119 51.6420 309.3160 0012077 88.0526 272.1839 15.35428940 68533
Phoenix
1 45258U 98067RB 21112.62453501 .00010290 00000-0 15405-3 0 9997
2 45258 51.6391 248.0638 0005620 45.6598 314.4853 15.55594803 66513
AztechSat-1
1 45261U 98067RE 21112.50309095 .00030955 00000-0 34728-3 0 9995
2 45261 51.6363 241.2512 0005397 54.0065 306.1429 15.62357457 66625
QARMAN
1 45263U 98067RG 21112.55807713 .00022232 00000-0 28037-3 0 9997
2 45263 51.6382 244.6293 0005700 53.6739 306.4780 15.59497308 66610
Quetzal 1
1 45598U 98067RL 21112.53725234 .00020330 00000-0 27379-3 0 9998
2 45598 51.6396 248.2560 0001339 154.2000 205.9059 15.57820493 55833
BY70-2
1 45857U 20042B 21112.88863040 .00001787 00000-0 26140-3 0 9990
2 45857 97.9850 189.2161 0012053 41.9033 318.3088 14.76874780 43345
UPMSat 2
1 46276U 20061E 21112.79151849 .00000883 00000-0 48862-4 0 9996
2 46276 97.4349 187.6826 0001934 138.4777 221.6603 15.16388521 35104
AmicalSat
1 46287U 20061R 21112.46184595 .00001099 00000-0 70803-4 0 9996
2 46287 97.4903 186.9503 0001229 309.2508 50.8612 15.10371983 34898
SALSAT
1 46495U 20068K 21112.55416604 .00000791 00000-0 62615-4 0 9993
2 46495 97.6899 50.3940 0015169 260.5080 99.4430 15.03423644 30938
BY70-3
1 46839U 20079N 21112.84830595 .00005411 00000-0 17026-3 0 9997
2 46839 97.2420 187.8127 0008681 54.4450 11.2965 15.33324863 25688
SPOC
1 46921U 98067RR 21112.44303009 .00010421 00000-0 16905-3 0 9994
2 46921 51.6415 255.1325 0001880 231.0894 128.9929 15.53357522 26155
Bobcat-1
1 46922U 98067RS 21112.76780016 .00015600 00000-0 23811-3 0 9995
2 46922 51.6424 252.8131 0001736 246.5458 113.5351 15.54623652 26163
Neutron-1
1 46923U 98067RT 21112.38977893 .00011704 00000-0 18974-3 0 9990
2 46923 51.6415 255.5248 0001827 247.0331 113.0466 15.53236576 26177
CAPE 3
1 47309U 21002A 21112.55902480 .00001676 00000-0 87302-4 0 9992
2 47309 60.6810 140.8863 0033165 13.8404 346.3583 15.20559298 14388
AO-109
1 47311U 21002C 21112.56812389 .00001206 00000-0 64854-4 0 9990
2 47311 60.6840 140.3729 0027941 14.6241 345.5647 15.21467385 14370
MiTEE 1
1 47314U 21002F 21112.49345121 .00002627 00000-0 12227-3 0 9994
2 47314 60.6834 139.9837 0026233 4.4575 355.6740 15.22788781 14384
